Weather History for KWYS - September, 2013

Change the Weather History Date:

Friday, September 20, 2013

  Actual Average Record
Temperature  
Mean Temperature 44 °F -  
Max Temperature 64 °F 58 °F 73 °F (2012)
Min Temperature 23 °F 28 °F 23 °F (2013)
Degree Days  
Heating Degree Days 22    
Moisture  
Dew Point 37 °F    
Average Humidity 85    
Maximum Humidity 93    
Minimum Humidity 80    
Precipitation  
Precipitation 0.00 in - - ()
Sea Level Pressure  
Sea Level Pressure 30.14 in    
Wind  
Wind Speed 2 mph (SSW)    
Max Wind Speed 12 mph    
Max Gust Speed 18 mph    
Visibility 10 miles    
Events      
Averages and records for this station are not official NWS values.
T = Trace of Precipitation, MM = Missing Value Source: NWS Daily Summary

Daily Weather History Graph

Daily Weather History Graph

Search for Another Location

Airport or City:

Trip Planner

Search our weather history database for the weather conditions in past years. The results will help you decide how hot, cold, wet, or windy it might be!

Date:

Astronomy

Sep. 20, 2013 Rise Set
Actual Time 7:09 AM MDT 7:25 PM MDT
Civil Twilight 6:40 AM MDT 7:54 PM MDT
Nautical Twilight 6:06 AM MDT 8:28 PM MDT
Astronomical Twilight 5:30 AM MDT 9:03 PM MDT
Moon 7:54 PM MDT (9/20) 8:33 AM MDT (9/20)
Length of Visible Light 13h 13m
Length of Day
12h 15m
Full, 98% of the Moon is Illuminated
Sep 20
Full
Sep 26
Last Quarter
Oct 4
New
Oct 11
First Quarter
Oct 18
Full

Hourly Weather History & Observations

Time (MDT) Temp. Windchill Dew Point Humidity Pressure Visibility Wind Dir Wind Speed Gust Speed Precip Events Conditions
12:10 AM 30.2 °F - 26.6 °F 86% 30.24 in 10.0 mi Calm Calm - N/A   Clear
12:30 AM 28.4 °F - 24.8 °F 86% 30.24 in 10.0 mi Calm Calm - N/A   Clear
12:50 AM 28.4 °F - 24.8 °F 86% 30.24 in 10.0 mi Calm Calm - N/A   Clear
1:10 AM 28.4 °F - 24.8 °F 86% 30.24 in 10.0 mi Calm Calm - N/A   Clear
1:30 AM 28.4 °F - 24.8 °F 86% 30.24 in 10.0 mi Calm Calm - N/A   Clear
1:50 AM 28.4 °F - 24.8 °F 86% 30.24 in 10.0 mi Calm Calm - N/A   Clear
2:10 AM 26.6 °F - 23.0 °F 86% 30.24 in 10.0 mi Calm Calm - N/A   Clear
2:30 AM 26.6 °F - 23.0 °F 86% 30.24 in 10.0 mi Calm Calm - N/A   Clear
2:50 AM 26.6 °F - 23.0 °F 86% 30.23 in 10.0 mi Calm Calm - N/A   Clear
3:10 AM 26.6 °F - 23.0 °F 86% 30.23 in 10.0 mi Calm Calm - N/A   Clear
3:30 AM 26.6 °F - 23.0 °F 86% 30.23 in 10.0 mi Calm Calm - N/A   Clear
3:50 AM 26.6 °F - 23.0 °F 86% 30.23 in 10.0 mi Calm Calm - N/A   Clear
4:10 AM 24.8 °F - 23.0 °F 93% 30.23 in 10.0 mi Calm Calm - N/A   Clear
4:30 AM 24.8 °F - 23.0 °F 93% 30.23 in 10.0 mi Calm Calm - N/A   Clear
4:50 AM 24.8 °F - 21.2 °F 86% 30.23 in 10.0 mi Calm Calm - N/A   Clear
5:10 AM 24.8 °F - 21.2 °F 86% 30.23 in 10.0 mi Calm Calm - N/A   Clear
5:30 AM 24.8 °F - 19.4 °F 80% 30.23 in 10.0 mi Calm Calm - N/A   Clear
5:50 AM 24.8 °F - 19.4 °F 80% 30.22 in 10.0 mi Calm Calm - N/A   Clear
6:10 AM 24.8 °F - 19.4 °F 80% 30.22 in 10.0 mi Calm Calm - N/A   Clear
6:30 AM 23.0 °F - 19.4 °F 86% 30.22 in 10.0 mi Calm Calm - N/A   Clear
6:50 AM 23.0 °F - 19.4 °F 86% 30.22 in 10.0 mi Calm Calm - N/A   Clear
7:10 AM 23.0 °F - 19.4 °F 86% 30.22 in 10.0 mi Calm Calm - N/A   Partly Cloudy
7:30 AM 23.0 °F - 19.4 °F 86% 30.23 in 10.0 mi Calm Calm - N/A   Clear
7:50 AM 24.8 °F - 21.2 °F 86% 30.23 in 10.0 mi Calm Calm - N/A   Clear
8:10 AM 26.6 °F - 23.0 °F 86% 30.23 in 10.0 mi Calm Calm - N/A   Clear
8:30 AM 28.4 °F - 24.8 °F 86% 30.23 in 10.0 mi Calm Calm - N/A   Clear
8:50 AM 30.2 °F - 26.6 °F 86% 30.23 in 10.0 mi Calm Calm - N/A   Clear
9:10 AM 32.0 °F - 28.4 °F 87% 30.23 in 10.0 mi Calm Calm - N/A   Clear
9:30 AM 33.8 °F - 30.2 °F 87% 30.23 in 10.0 mi Calm Calm - N/A   Clear
9:50 AM 35.6 °F - 32.0 °F 87% 30.22 in 10.0 mi Calm Calm - N/A   Clear
10:10 AM 37.4 °F - 32.0 °F 81% 30.21 in 10.0 mi Calm Calm - N/A   Clear
10:30 AM 41.0 °F - 35.6 °F 81% 30.21 in 10.0 mi Calm Calm - N/A   Clear
10:50 AM 42.8 °F - 37.4 °F 81% 30.20 in 10.0 mi Calm Calm - N/A   Clear
11:10 AM 46.4 °F - 41.0 °F 81% 30.20 in 10.0 mi Calm Calm - N/A   Clear
11:30 AM 48.2 °F - 44.6 °F 87% 30.19 in 10.0 mi Calm Calm - N/A   Clear
11:50 AM 50.0 °F - 46.4 °F 87% 30.18 in 10.0 mi SE 3.5 mph - N/A   Clear
12:10 PM 53.6 °F - 48.2 °F 82% 30.17 in 10.0 mi South 6.9 mph - N/A   Clear
12:30 PM 55.4 °F - 50.0 °F 82% 30.15 in 10.0 mi Calm Calm - N/A   Clear
12:50 PM 55.4 °F - 50.0 °F 82% 30.15 in 10.0 mi ENE 4.6 mph - N/A   Clear
1:10 PM 57.2 °F - 53.6 °F 88% 30.13 in 10.0 mi Calm Calm - N/A   Clear
1:30 PM 59.0 °F - 55.4 °F 88% 30.13 in 10.0 mi SW 5.8 mph - N/A   Clear
1:50 PM 60.8 °F - 57.2 °F 88% 30.12 in 10.0 mi SSW 10.4 mph - N/A   Clear
2:10 PM 62.6 °F - 57.2 °F 82% 30.11 in 10.0 mi SW 10.4 mph 16.1 mph N/A   Clear
2:30 PM 62.6 °F - 57.2 °F 82% 30.10 in 10.0 mi SW 10.4 mph 17.3 mph N/A   Clear
2:50 PM 62.6 °F - 59.0 °F 88% 30.09 in 10.0 mi SSW 6.9 mph - N/A   Clear
3:10 PM 62.6 °F - 59.0 °F 88% 30.09 in 10.0 mi SSW 11.5 mph 16.1 mph N/A   Clear
3:30 PM 64.4 °F - 59.0 °F 83% 30.08 in 10.0 mi South 5.8 mph 17.3 mph N/A   Clear
3:50 PM 64.4 °F - 59.0 °F 83% 30.08 in 10.0 mi SSW 9.2 mph 18.4 mph N/A   Clear
4:10 PM 64.4 °F - 59.0 °F 83% 30.07 in 10.0 mi SW 11.5 mph 18.4 mph N/A   Clear
4:30 PM 64.4 °F - 59.0 °F 83% 30.07 in 10.0 mi SW 11.5 mph 18.4 mph N/A   Clear
4:50 PM 64.4 °F - 59.0 °F 83% 30.06 in 10.0 mi SSW 10.4 mph 17.3 mph N/A   Clear
5:10 PM 64.4 °F - 59.0 °F 83% 30.06 in 10.0 mi SSW 11.5 mph - N/A   Clear
5:30 PM 64.4 °F - 59.0 °F 83% 30.05 in 10.0 mi SW 11.5 mph 16.1 mph N/A   Clear
5:50 PM 64.4 °F - 59.0 °F 83% 30.05 in 10.0 mi SW 8.1 mph 16.1 mph N/A   Clear
6:10 PM 62.6 °F - 59.0 °F 88% 30.04 in 10.0 mi SSW 8.1 mph - N/A   Clear
6:30 PM 62.6 °F - 57.2 °F 82% 30.04 in 10.0 mi SW 3.5 mph - N/A   Clear
6:50 PM 62.6 °F - 57.2 °F 82% 30.03 in 10.0 mi SSW 5.8 mph - N/A   Clear
7:10 PM 57.2 °F - 51.8 °F 82% 30.03 in 10.0 mi Calm Calm - N/A   Clear
7:30 PM 50.0 °F - 46.4 °F 87% 30.03 in 10.0 mi Calm Calm - N/A   Clear
7:50 PM 48.2 °F - 42.8 °F 82% 30.03 in 10.0 mi Calm Calm - N/A   Clear
8:10 PM 46.4 °F 44.3 °F 41.0 °F 81% 30.03 in 10.0 mi South 4.6 mph - N/A   Clear
8:30 PM 46.4 °F 45.2 °F 41.0 °F 81% 30.03 in 10.0 mi South 3.5 mph - N/A   Clear
8:50 PM 44.6 °F 42.2 °F 39.2 °F 81% 30.04 in 10.0 mi South 4.6 mph - N/A   Clear
9:10 PM 42.8 °F 41.1 °F 39.2 °F 87% 30.03 in 10.0 mi South 3.5 mph - N/A   Clear
9:30 PM 39.2 °F - 35.6 °F 87% 30.03 in 10.0 mi Calm Calm - N/A   Clear
9:50 PM 37.4 °F - 33.8 °F 87% 30.03 in 10.0 mi Calm Calm - N/A   Clear
10:10 PM 37.4 °F - 32.0 °F 81% 30.03 in 10.0 mi Calm Calm - N/A   Clear
10:30 PM 33.8 °F - 30.2 °F 87% 30.03 in 10.0 mi Calm Calm - N/A   Clear
10:50 PM 35.6 °F - 32.0 °F 87% 30.03 in 10.0 mi Calm Calm - N/A   Clear
11:10 PM 33.8 °F - 30.2 °F 87% 30.03 in 10.0 mi Calm Calm - N/A   Clear
11:30 PM 32.0 °F - 28.4 °F 87% 30.03 in 10.0 mi Calm Calm - N/A   Clear
11:50 PM 32.0 °F - 26.6 °F 80% 30.03 in 10.0 mi Calm Calm - N/A   Clear